When you browse on this site, cookies collect data to enhance your experience and personalize the content and advertising you see.
Visit our Privacy Policy to learn more. By continuing to use the site, you agree to this use of cookies and data.
  • In Latvia
  • List of Countries
  • For 7 days
  • Water Temperature
  • Satellite Maps
  • Weather Map
  • Weather Widgets
  • user-avatar
    Login

    Hourly Weather Prutz

    Today, 19 June, Wednesday

    Time Temperature Precipitation Wind Pressure Humidity
    00:00 +11°C° 0.5 mm 0 mps 634 mmHg 91%
    01:00 +12°C° 0 mm 1 mps 634 mmHg 90%
    02:00 +12°C° 0.4 mm 1 mps 634 mmHg 89%
    03:00 +12°C° 0.4 mm 1 mps 634 mmHg 87%
    04:00 +12°C° 0.4 mm 1 mps 633 mmHg 86%
    05:00 +14°C° 0.1 mm 1 mps 634 mmHg 82%
    06:00 +15°C° 0.1 mm 1 mps 634 mmHg 78%
    07:00 +15°C° 0.1 mm 0 mps 634 mmHg 74%
    08:00 +16°C° 0.3 mm 0 mps 635 mmHg 67%
    09:00 +18°C° 0.3 mm 0 mps 635 mmHg 59%
    10:00 +19°C° 0.3 mm 0 mps 635 mmHg 51%
    11:00 +22°C° 0.3 mm 1 mps 635 mmHg 48%
    12:00 +23°C° 0.3 mm 1 mps 635 mmHg 44%
    13:00 +23°C° 0.3 mm 1 mps 636 mmHg 41%
    14:00 +23°C° 0.2 mm 1 mps 635 mmHg 43%
    15:00 +21°C° 0.2 mm 2 mps 635 mmHg 44%
    16:00 +21°C° 0.2 mm 2 mps 634 mmHg 46%
    17:00 +20°C° 0.2 mm 2 mps 634 mmHg 53%
    18:00 +20°C° 0.2 mm 1 mps 634 mmHg 60%
    19:00 +19°C° 0.2 mm 1 mps 634 mmHg 68%
    20:00 +18°C° 0.5 mm 1 mps 634 mmHg 72%
    21:00 +15°C° 0.5 mm 1 mps 633 mmHg 77%
    22:00 +14°C° 0.5 mm 1 mps 633 mmHg 82%
    23:00 +13°C° 0.2 mm 1 mps 633 mmHg 83%

    Tomorrow, 20 June, Thursday

    Time Temperature Precipitation Wind Pressure Humidity
    00:00 +13°C° 0.2 mm 1 mps 633 mmHg 85%
    01:00 +12°C° 0.2 mm 1 mps 633 mmHg 86%
    02:00 +11°C° 0.1 mm 1 mps 632 mmHg 87%
    03:00 +10°C° 0.1 mm 0 mps 632 mmHg 87%
    04:00 +9°C° 0.1 mm 0 mps 632 mmHg 87%
    05:00 +11°C° 0.1 mm 0 mps 632 mmHg 85%
    06:00 +13°C° 0.1 mm 1 mps 633 mmHg 82%
    07:00 +15°C° 0.1 mm 1 mps 634 mmHg 79%
    08:00 +16°C° 0.9 mm 1 mps 634 mmHg 78%
    09:00 +16°C° 0.9 mm 1 mps 634 mmHg 77%
    10:00 +17°C° 0.9 mm 2 mps 634 mmHg 76%
    11:00 +17°C° 1.7 mm 2 mps 634 mmHg 78%
    12:00 +16°C° 1.7 mm 2 mps 634 mmHg 81%
    13:00 +16°C° 1.7 mm 2 mps 634 mmHg 84%
    14:00 +16°C° 1.1 mm 2 mps 634 mmHg 86%
    15:00 +15°C° 1.1 mm 2 mps 634 mmHg 87%
    16:00 +15°C° 1.1 mm 2 mps 634 mmHg 89%
    17:00 +14°C° 0.4 mm 1 mps 634 mmHg 89%
    18:00 +14°C° 0.4 mm 1 mps 634 mmHg 89%
    19:00 +14°C° 0.4 mm 1 mps 634 mmHg 89%
    20:00 +13°C° 0.2 mm 1 mps 634 mmHg 90%
    21:00 +12°C° 0.2 mm 0 mps 634 mmHg 91%
    22:00 +11°C° 0.2 mm 0 mps 634 mmHg 92%
    23:00 +11°C° 0.2 mm 0 mps 634 mmHg 92%

    Day after tomorrow, 21 June, Friday

    Time Temperature Precipitation Wind Pressure Humidity
    00:00 +11°C° 0.2 mm 0 mps 634 mmHg 91%
    01:00 +12°C° 0.2 mm 1 mps 634 mmHg 91%
    02:00 +11°C° 0.1 mm 0 mps 634 mmHg 90%
    03:00 +11°C° 0.1 mm 0 mps 634 mmHg 90%
    04:00 +11°C° 0.1 mm 0 mps 634 mmHg 89%
    05:00 +11°C° 0.1 mm 0 mps 634 mmHg 86%
    06:00 +12°C° 0.1 mm 0 mps 635 mmHg 82%
    07:00 +13°C° 0.1 mm 0 mps 635 mmHg 79%
    08:00 +15°C° 0.1 mm 1 mps 636 mmHg 71%
    09:00 +18°C° 0.1 mm 1 mps 636 mmHg 63%
    10:00 +19°C° 0.1 mm 1 mps 637 mmHg 55%
    11:00 +20°C° 0.2 mm 1 mps 637 mmHg 55%
    12:00 +19°C° 0.2 mm 2 mps 637 mmHg 55%
    13:00 +19°C° 0.2 mm 2 mps 637 mmHg 55%
    14:00 +18°C° 0.9 mm 2 mps 636 mmHg 62%
    15:00 +18°C° 0.9 mm 2 mps 636 mmHg 69%
    16:00 +17°C° 0.9 mm 2 mps 635 mmHg 76%
    17:00 +16°C° 1.1 mm 2 mps 635 mmHg 82%
    18:00 +15°C° 1.1 mm 1 mps 635 mmHg 88%
    19:00 +14°C° 1.1 mm 1 mps 634 mmHg 93%
    20:00 +14°C° 1.1 mm 1 mps 634 mmHg 94%
    21:00 +13°C° 1.1 mm 1 mps 634 mmHg 96%
    22:00 +13°C° 1.1 mm 1 mps 634 mmHg 97%
    23:00 +11°C° 0.4 mm 0 mps 634 mmHg 96%

    22 June, Saturday

    Time Temperature Precipitation Wind Pressure Humidity
    00:00 +11°C° 0.4 mm 0 mps 634 mmHg 96%
    01:00 +11°C° 0.4 mm 0 mps 634 mmHg 96%
    02:00 +12°C° 0.1 mm 1 mps 634 mmHg 95%
    03:00 +11°C° 0.1 mm 1 mps 633 mmHg 95%
    04:00 +10°C° 0.1 mm 1 mps 633 mmHg 95%
    05:00 +12°C° 0.2 mm 1 mps 634 mmHg 92%
    06:00 +13°C° 0.2 mm 1 mps 634 mmHg 90%
    07:00 +13°C° 0.2 mm 0 mps 634 mmHg 87%
    08:00 +14°C° 0.9 mm 1 mps 634 mmHg 85%
    09:00 +15°C° 0.9 mm 1 mps 635 mmHg 83%
    10:00 +16°C° 0.9 mm 1 mps 635 mmHg 81%
    11:00 +18°C° 1.7 mm 1 mps 635 mmHg 81%
    12:00 +18°C° 1.7 mm 1 mps 635 mmHg 80%
    13:00 +19°C° 1.7 mm 1 mps 635 mmHg 79%
    14:00 +18°C° 1.8 mm 1 mps 635 mmHg 80%
    15:00 +18°C° 1.8 mm 1 mps 635 mmHg 81%
    16:00 +17°C° 1.8 mm 2 mps 634 mmHg 82%
    17:00 +16°C° 1.1 mm 2 mps 634 mmHg 85%
    18:00 +15°C° 1.1 mm 2 mps 634 mmHg 88%
    19:00 +14°C° 1.1 mm 2 mps 634 mmHg 91%
    20:00 +13°C° 0.1 mm 1 mps 634 mmHg 93%
    21:00 +13°C° 0.1 mm 1 mps 634 mmHg 94%
    22:00 +11°C° 0.1 mm 0 mps 635 mmHg 96%
    23:00 +10°C° 0 mm 0 mps 635 mmHg 95%

    23 June, Sunday

    Time Temperature Precipitation Wind Pressure Humidity
    00:00 +10°C° 0 mm 0 mps 634 mmHg 94%
    01:00 +10°C° 0 mm 0 mps 634 mmHg 93%
    02:00 +9°C° 0 mm 0 mps 634 mmHg 93%
    03:00 +9°C° 0 mm 1 mps 634 mmHg 93%
    04:00 +8°C° 0 mm 1 mps 633 mmHg 92%
    05:00 +9°C° 0 mm 0 mps 634 mmHg 87%
    06:00 +11°C° 0 mm 0 mps 635 mmHg 82%
    07:00 +13°C° 0 mm 0 mps 636 mmHg 76%
    08:00 +15°C° 0 mm 0 mps 637 mmHg 68%
    09:00 +19°C° 0 mm 1 mps 637 mmHg 59%
    10:00 +21°C° 0 mm 1 mps 638 mmHg 50%
    11:00 +22°C° 0 mm 1 mps 638 mmHg 46%
    12:00 +23°C° 0 mm 1 mps 639 mmHg 41%
    13:00 +24°C° 0 mm 1 mps 639 mmHg 36%
    14:00 +24°C° 0 mm 2 mps 639 mmHg 37%
    15:00 +24°C° 0 mm 2 mps 639 mmHg 38%
    16:00 +24°C° 0 mm 3 mps 639 mmHg 40%
    17:00 +21°C° 0 mm 2 mps 638 mmHg 50%
    18:00 +20°C° 0 mm 2 mps 638 mmHg 61%
    19:00 +18°C° 0 mm 2 mps 638 mmHg 71%
    20:00 +16°C° 0 mm 1 mps 637 mmHg 78%
    21:00 +14°C° 0 mm 1 mps 637 mmHg 85%
    22:00 +11°C° 0 mm 0 mps 637 mmHg 92%
    23:00 +11°C° 0 mm 0 mps 637 mmHg 91%

    24 June, Monday

    Time Temperature Precipitation Wind Pressure Humidity
    00:00 +12°C° 0 mm 1 mps 637 mmHg 89%
    01:00 +12°C° 0 mm 1 mps 637 mmHg 88%
    02:00 +12°C° 0 mm 1 mps 637 mmHg 85%
    03:00 +12°C° 0 mm 1 mps 637 mmHg 83%
    04:00 +11°C° 0 mm 1 mps 637 mmHg 80%
    05:00 +14°C° 0 mm 1 mps 638 mmHg 70%
    06:00 +18°C° 0 mm 1 mps 639 mmHg 61%
    07:00 +20°C° 0 mm 1 mps 640 mmHg 51%
    08:00 +22°C° 0 mm 1 mps 641 mmHg 44%
    09:00 +24°C° 0 mm 1 mps 641 mmHg 36%
    10:00 +26°C° 0 mm 1 mps 642 mmHg 29%
    11:00 +27°C° 0 mm 1 mps 642 mmHg 28%
    12:00 +28°C° 0 mm 1 mps 642 mmHg 27%
    13:00 +29°C° 0 mm 1 mps 643 mmHg 26%
    14:00 +29°C° 0 mm 1 mps 643 mmHg 26%
    15:00 +29°C° 0 mm 1 mps 642 mmHg 26%
    16:00 +29°C° 0 mm 1 mps 642 mmHg 27%
    17:00 +27°C° 0 mm 1 mps 642 mmHg 38%
    18:00 +26°C° 0 mm 1 mps 642 mmHg 49%
    19:00 +24°C° 0 mm 1 mps 641 mmHg 61%
    20:00 +22°C° 0 mm 1 mps 641 mmHg 64%
    21:00 +20°C° 0 mm 1 mps 641 mmHg 67%
    22:00 +16°C° 0 mm 1 mps 640 mmHg 71%
    23:00 +16°C° 0 mm 1 mps 640 mmHg 67%
    Show more